TimeEST,TemperatureF,Dew PointF,Humidity,Sea Level PressureIn,VisibilityMPH,Wind Direction,Wind SpeedMPH,Gust SpeedMPH,PrecipitationIn,Events,Conditions,WindDirDegrees,DateUTC
12:15 AM,60.8,59.0,94,29.87,7.0,NE,9.2,-,N/A,,Overcast,40,2013-02-26 05:15:00
12:35 AM,59.0,57.2,94,29.86,5.0,NE,9.2,-,N/A,,Overcast,50,2013-02-26 05:35:00
12:55 AM,57.2,57.2,100,29.85,7.0,ENE,9.2,-,N/A,,Overcast,60,2013-02-26 05:55:00
1:15 AM,57.2,57.2,100,29.84,7.0,NNE,9.2,-,N/A,,Overcast,30,2013-02-26 06:15:00
1:35 AM,59.0,57.2,94,29.82,5.0,NE,9.2,-,N/A,,Overcast,50,2013-02-26 06:35:00
1:55 AM,59.0,59.0,100,29.81,5.0,NE,9.2,-,N/A,,Overcast,50,2013-02-26 06:55:00
2:15 AM,59.0,59.0,100,29.80,5.0,ENE,10.4,-,N/A,,Overcast,60,2013-02-26 07:15:00
2:35 AM,60.8,59.0,94,29.79,4.0,ENE,9.2,-,N/A,,Overcast,70,2013-02-26 07:35:00
2:55 AM,60.8,60.8,100,29.78,3.0,ENE,6.9,-,N/A,,Overcast,70,2013-02-26 07:55:00
3:15 AM,60.8,60.8,100,29.77,3.0,NE,6.9,-,N/A,,Overcast,50,2013-02-26 08:15:00
3:35 AM,62.6,60.8,94,29.76,3.0,ENE,8.1,-,N/A,,Overcast,70,2013-02-26 08:35:00
3:55 AM,62.6,62.6,100,29.74,3.0,NE,4.6,-,N/A,,Overcast,50,2013-02-26 08:55:00
4:15 AM,62.6,62.6,100,29.73,2.0,ENE,3.5,-,N/A,,Overcast,70,2013-02-26 09:15:00
4:35 AM,64.4,62.6,94,29.73,2.5,Calm,Calm,-,N/A,,Overcast,0,2013-02-26 09:35:00
4:55 AM,68.0,68.0,100,29.73,7.0,SE,8.1,-,N/A,,Overcast,130,2013-02-26 09:55:00
5:15 AM,69.8,69.8,100,29.72,7.0,SE,6.9,-,N/A,,Overcast,130,2013-02-26 10:15:00
5:35 AM,69.8,69.8,100,29.72,7.0,SE,8.1,-,N/A,,Overcast,130,2013-02-26 10:35:00
5:55 AM,71.6,69.8,94,29.71,7.0,SE,8.1,-,N/A,,Overcast,140,2013-02-26 10:55:00
6:15 AM,71.6,69.8,94,29.69,7.0,SE,10.4,-,N/A,,Overcast,140,2013-02-26 11:15:00
6:35 AM,69.8,69.8,100,29.69,7.0,SSE,9.2,-,N/A,,Overcast,160,2013-02-26 11:35:00
6:55 AM,69.8,68.0,94,29.69,5.0,SSE,4.6,-,N/A,,Overcast,150,2013-02-26 11:55:00
7:15 AM,69.8,68.0,94,29.70,7.0,SE,4.6,-,N/A,,Overcast,140,2013-02-26 12:15:00
7:35 AM,69.8,68.0,94,29.69,7.0,SSE,6.9,-,N/A,,Overcast,150,2013-02-26 12:35:00
7:55 AM,69.8,68.0,94,29.69,5.0,SE,5.8,-,N/A,,Overcast,140,2013-02-26 12:55:00
8:15 AM,69.8,68.0,94,29.70,5.0,South,6.9,16.1,N/A,,Overcast,170,2013-02-26 13:15:00
8:35 AM,69.8,68.0,94,29.69,4.0,SSE,9.2,-,N/A,,Overcast,150,2013-02-26 13:35:00
8:55 AM,69.8,68.0,94,29.72,4.0,South,13.8,19.6,N/A,,Overcast,180,2013-02-26 13:55:00
9:15 AM,69.8,69.8,100,29.72,5.0,South,8.1,-,N/A,,Overcast,190,2013-02-26 14:15:00
9:35 AM,71.6,69.8,94,29.73,7.0,South,8.1,-,N/A,,Overcast,190,2013-02-26 14:35:00
9:55 AM,71.6,69.8,94,29.70,5.0,South,15.0,20.7,N/A,,Overcast,180,2013-02-26 14:55:00
10:15 AM,71.6,69.8,94,29.69,7.0,South,15.0,28.8,N/A,,Overcast,180,2013-02-26 15:15:00
10:35 AM,71.6,69.8,94,29.69,10.0,South,17.3,25.3,N/A,,Overcast,170,2013-02-26 15:35:00
10:55 AM,71.6,69.8,94,29.69,10.0,South,12.7,20.7,N/A,,Overcast,180,2013-02-26 15:55:00
11:15 AM,73.4,71.6,94,29.69,10.0,South,17.3,-,N/A,,Overcast,180,2013-02-26 16:15:00
11:35 AM,73.4,71.6,94,29.69,10.0,South,15.0,20.7,N/A,,Overcast,190,2013-02-26 16:35:00
11:55 AM,77.0,71.6,83,29.68,10.0,SSW,12.7,21.9,N/A,,Mostly Cloudy,200,2013-02-26 16:55:00
12:15 PM,78.8,69.8,74,29.66,10.0,SSW,16.1,23.0,N/A,,Scattered Clouds,200,2013-02-26 17:15:00
12:35 PM,78.8,64.4,61,29.67,10.0,SSW,13.8,20.7,N/A,,Clear,200,2013-02-26 17:35:00
12:55 PM,78.8,60.8,54,29.67,10.0,SSW,13.8,24.2,N/A,,Clear,210,2013-02-26 17:55:00
1:15 PM,80.6,62.6,54,29.66,10.0,SW,12.7,19.6,N/A,,Clear,220,2013-02-26 18:15:00
1:35 PM,80.6,60.8,51,29.65,10.0,SSW,16.1,24.2,N/A,,Clear,210,2013-02-26 18:35:00
1:55 PM,80.6,59.0,48,29.65,10.0,SSW,16.1,21.9,N/A,,Clear,200,2013-02-26 18:55:00
2:15 PM,80.6,55.4,42,29.65,10.0,SW,16.1,20.7,N/A,,Clear,220,2013-02-26 19:15:00
2:35 PM,80.6,53.6,39,29.66,10.0,SW,13.8,20.7,N/A,,Clear,230,2013-02-26 19:35:00
2:55 PM,80.6,50.0,34,29.66,10.0,SW,18.4,26.5,N/A,,Clear,230,2013-02-26 19:55:00
3:15 PM,80.6,51.8,37,29.66,10.0,WSW,17.3,23.0,N/A,,Clear,250,2013-02-26 20:15:00
3:35 PM,80.6,51.8,37,29.66,10.0,SW,17.3,26.5,N/A,,Clear,220,2013-02-26 20:35:00
3:55 PM,80.6,53.6,39,29.65,10.0,SW,13.8,21.9,N/A,,Clear,230,2013-02-26 20:55:00
4:15 PM,78.8,48.2,34,29.65,10.0,WSW,12.7,-,N/A,,Clear,250,2013-02-26 21:15:00
4:35 PM,80.6,50.0,34,29.65,10.0,SW,16.1,20.7,N/A,,Clear,230,2013-02-26 21:35:00
4:55 PM,80.6,50.0,34,29.64,10.0,SSW,17.3,24.2,N/A,,Clear,210,2013-02-26 21:55:00
5:15 PM,78.8,48.2,34,29.64,10.0,SW,15.0,19.6,N/A,,Clear,220,2013-02-26 22:15:00
5:35 PM,77.0,46.4,34,29.65,10.0,SW,12.7,23.0,N/A,,Clear,230,2013-02-26 22:35:00
5:55 PM,77.0,46.4,34,29.66,10.0,SSW,15.0,23.0,N/A,,Clear,210,2013-02-26 22:55:00
6:15 PM,73.4,46.4,38,29.67,10.0,SW,11.5,-,N/A,,Clear,230,2013-02-26 23:15:00
6:35 PM,73.4,50.0,44,29.69,10.0,SW,16.1,24.2,N/A,,Clear,230,2013-02-26 23:35:00
6:55 PM,73.4,50.0,44,29.70,10.0,SW,15.0,25.3,N/A,,Clear,230,2013-02-26 23:55:00
7:15 PM,71.6,50.0,46,29.71,10.0,SW,15.0,23.0,N/A,,Clear,230,2013-02-27 00:15:00
7:35 PM,71.6,50.0,46,29.72,10.0,SW,12.7,24.2,N/A,,Clear,230,2013-02-27 00:35:00
7:55 PM,69.8,51.8,53,29.73,10.0,SW,10.4,-,N/A,,Clear,230,2013-02-27 00:55:00
8:15 PM,69.8,51.8,53,29.74,10.0,SW,13.8,25.3,N/A,,Clear,230,2013-02-27 01:15:00
8:35 PM,69.8,51.8,53,29.75,10.0,SW,13.8,26.5,N/A,,Clear,220,2013-02-27 01:35:00
8:55 PM,68.0,53.6,60,29.75,10.0,SW,12.7,23.0,N/A,,Clear,230,2013-02-27 01:55:00
9:15 PM,68.0,53.6,60,29.76,10.0,SW,15.0,-,N/A,,Clear,230,2013-02-27 02:15:00
9:35 PM,66.2,53.6,64,29.77,10.0,SW,11.5,17.3,N/A,,Clear,230,2013-02-27 02:35:00
9:55 PM,66.2,53.6,64,29.77,10.0,SW,12.7,21.9,N/A,,Clear,220,2013-02-27 02:55:00
10:15 PM,66.2,53.6,64,29.78,10.0,SW,13.8,-,N/A,,Clear,230,2013-02-27 03:15:00
10:35 PM,64.4,53.6,68,29.79,10.0,WSW,12.7,18.4,N/A,,Clear,240,2013-02-27 03:35:00
10:55 PM,64.4,53.6,68,29.80,10.0,WSW,12.7,19.6,N/A,,Clear,240,2013-02-27 03:55:00
11:15 PM,64.4,53.6,68,29.80,10.0,SW,15.0,20.7,N/A,,Clear,230,2013-02-27 04:15:00
11:35 PM,62.6,53.6,72,29.81,10.0,WSW,18.4,23.0,N/A,,Clear,240,2013-02-27 04:35:00
11:55 PM,62.6,53.6,72,29.81,10.0,WSW,15.0,24.2,N/A,,Clear,240,2013-02-27 04:55:00